Location: Newark
(31.5350°N, 35.0986°E)
Time: 19:24:29
(UTC+00:00)

Explorer 7 - Pass Details

Date: 24 October 2019
Orbit: 485 x 680 km, 50.3° (Epoch: 11 November)

Event Time Altitude Azimuth Distance (km) Brightness Sun altitude
Rises 13:47:19 0° 318° (NW) 2,594 10.5 13.6°
Reaches altitude 10° 13:49:30 10° 324° (NW) 1,730 9.6 13.1°
Maximum altitude 13:53:19 49° 40° (NE) 685 7.1 12.4°
Drops below altitude 10° 13:57:20 10° 116° (ESE) 1,824 9.1 11.6°
Sets 13:59:42 0° 122° (ESE) 2,753 10.0 11.1°
